This is the latest recevied weather packets stored in our database for station/object OE9XVI-6. If no packets are shown the sender has not sent any weather packets the latest 1 day(s).
| Time | Temp. | Humidity | Pressure | Rain* | Wind** | Luminosity | Snow |
|---|---|---|---|---|---|---|---|
| 1777976214 | 17.22° C | 52% | 1009.8 hPa | 0 mm | 0 m/s | - | - |
| 1777975614 | 16.67° C | 55% | 1009.9 hPa | 0 mm | 0 m/s | - | - |
| 1777975014 | 15.56° C | 58% | 1009.9 hPa | 0 mm | 0 m/s | - | - |
| 1777974414 | 14.44° C | 58% | 1009.9 hPa | 0 mm | 0 m/s | - | - |
| 1777973814 | 13.89° C | 54% | 1009.8 hPa | 0 mm | 0 m/s | - | - |
| 1777973214 | 14.44° C | 54% | 1009.9 hPa | 0 mm | 0 m/s | - | - |
| 1777972614 | 14.44° C | 57% | 1010 hPa | 0 mm | 0 m/s | - | - |
| 1777972014 | 13.89° C | 56% | 1010.1 hPa | 0 mm | 0 m/s | - | - |
| 1777971414 | 13.89° C | 45% | 1010 hPa | 0 mm | 0 m/s | - | - |
| 1777970814 | 13.89° C | 44% | 1010 hPa | 0 mm | 0 m/s | - | - |
| 1777970214 | 14.44° C | 51% | 1010 hPa | 0 mm | 0 m/s | - | - |
| 1777969614 | 13.89° C | 55% | 1010.2 hPa | 0 mm | 0 m/s | - | - |
| 1777969014 | 13.89° C | 52% | 1010.2 hPa | 0 mm | 1.34 m/s, 315° | - | - |
| 1777968414 | 13.89° C | 49% | 1010.4 hPa | 0 mm | 0 m/s | - | - |
| 1777967814 | 13.33° C | 51% | 1010.5 hPa | 0 mm | 0.89 m/s, 167° | - | - |
| 1777967214 | 13.33° C | 50% | 1010.5 hPa | 0 mm | 1.34 m/s, 161° | - | - |
| 1777966614 | 13.33° C | 51% | 1010.5 hPa | 0 mm | 1.79 m/s, 146° | - | - |
| 1777966014 | 13.89° C | 51% | 1010.6 hPa | 0 mm | 0.89 m/s, 161° | - | - |
| 1777965414 | 13.89° C | 52% | 1010.6 hPa | 0 mm | 0 m/s | - | - |
| 1777964814 | 13.33° C | 53% | 1010.7 hPa | 0 mm | 0.89 m/s, 171° | - | - |
| 1777964214 | 12.78° C | 56% | 1010.8 hPa | 0 mm | 0 m/s | - | - |
| 1777963614 | 12.78° C | 57% | 1010.7 hPa | 0 mm | 0 m/s | - | - |
| 1777963014 | 12.22° C | 58% | 1010.7 hPa | 0 mm | 0 m/s | - | - |
| 1777962414 | 12.22° C | 55% | 1010.8 hPa | 0 mm | 0.89 m/s, 156° | - | - |
| 1777961814 | 11.67° C | 54% | 1010.7 hPa | 0 mm | 0 m/s | - | - |
* Rain latest hour (hover to see other rain measurements)
** Current wind speed in m/s (hover to see current wind gust speed)